• Join FlightAware (Why Join?)
  • Login
  • US Flag 
10:28AM EST


 

Airport Tracker/Info


-or-


 

Live Flight TrackerFlight Track Log ✈ SWA2336 ✈ 20-Apr-2013 ✈ KTPA - KIND

Flight Track Log - Related Links

Times and Time Zones

All times are in EDT time to prevent confusion due to time zone crossing. See the SWA2336 flight status page for this flight to view local times or setup timezone preferences in your user account.

Time Position Orientation Groundspeed Altitude Reporting Facility
EDT Latitude Longitude Course Direction KTS MPH feet Rate Location/Type
10:59AM 28.0667 -82.5333 360° North 221 254 2,900  Level Tampa TRACON
11:00AM 28.1333 -82.5333 360° North 267 307 5,300 2,905 Climbing Tampa TRACON
11:01AM 28.2167 -82.5333 360° North 297 342 9,000 3,103 Climbing Tampa TRACON
11:01AM 28.2392 -82.5392 347° North 324 373 9,800 2,741 Climbing Jacksonville Center
11:02AM 28.3103 -82.5978 324° Northwest 330 380 12,700 3,400 Climbing Jacksonville Center
11:03AM 28.3814 -82.6567 324° Northwest 330 380 16,600 3,000 Climbing Jacksonville Center
11:04AM 28.4503 -82.7156 323° Northwest 325 374 18,700 1,800 Climbing Jacksonville Center
11:05AM 28.5339 -82.7839 324° Northwest 340 391 20,200 2,050 Climbing Jacksonville Center
11:06AM 28.6486 -82.8333 339° North 382 440 22,800 2,400 Climbing Jacksonville Center
11:07AM 28.7550 -82.8522 351° North 389 448 25,000 2,100 Climbing Jacksonville Center
11:08AM 28.8742 -82.8808 348° North 408 470 27,000 1,850 Climbing Jacksonville Center
11:09AM 28.9931 -82.9092 348° North 425 489 28,700 1,600 Climbing Jacksonville Center
11:10AM 29.1183 -82.9378 349° North 444 511 30,200 1,400 Climbing Jacksonville Center
11:11AM 29.2497 -82.9686 348° North 459 528 31,500 1,600 Climbing Jacksonville Center
11:12AM 29.3772 -82.9975 349° North 470 541 33,400 1,800 Climbing Jacksonville Center
11:13AM 29.5106 -83.0333 347° North 470 541 35,100 1,350 Climbing Jacksonville Center
11:14AM 29.6339 -83.0669 347° North 470 541 36,100 1,300 Climbing Jacksonville Center
11:15AM 29.7506 -83.1197 339° North 452 520 37,700 1,700 Climbing Jacksonville Center
11:16AM 29.8611 -83.1728 337° Northwest 440 506 39,500 1,150 Climbing Jacksonville Center
11:17AM 29.9697 -83.2233 338° Northwest 421 484 40,000 250 Climbing Jacksonville Center
11:18AM 30.0906 -83.2767 339° North 421 484 40,000  Level Jacksonville Center
11:19AM 30.2031 -83.3300 338° Northwest 421 484 40,000  Level Jacksonville Center
11:20AM 30.3156 -83.3833 338° Northwest 426 490 40,000  Level Jacksonville Center
11:21AM 30.4303 -83.4347 339° North 432 497 40,000  Level Jacksonville Center
11:22AM 30.5428 -83.4883 338° Northwest 437 503 40,000  Level Jacksonville Center
11:23AM 30.6594 -83.5422 338° Northwest 437 503 40,000  Level Jacksonville Center
11:24AM 30.7572 -83.5911 337° Northwest 427 491 40,000  Level Jacksonville Center
11:25AM 30.8739 -83.6478 337° Northwest 433 498 40,000  Level Jacksonville Center
11:26AM 30.9883 -83.7019 338° Northwest 438 504 40,000  Level Jacksonville Center
11:27AM 31.1008 -83.7564 337° Northwest 433 498 40,000  Level Jacksonville Center
11:28AM 31.2175 -83.8108 338° Northwest 438 504 40,000  Level Jacksonville Center
11:31AM 31.4753 -83.9414 337° Northwest 434 499 40,000  Level Atlanta Center
11:32AM 31.6006 -83.9828 344° North 439 505 40,000  Level Atlanta Center
11:33AM 31.7319 -84.0094 350° North 456 525 40,000  Level Atlanta Center
11:34AM 31.8614 -84.0364 350° North 467 537 40,000  Level Atlanta Center
11:35AM 31.9867 -84.0633 350° North 467 537 40,000  Level Atlanta Center
11:36AM 32.1181 -84.0928 349° North 467 537 40,000  Level Atlanta Center
11:37AM 32.2475 -84.1222 349° North 467 537 40,000  Level Atlanta Center
11:38AM 32.3622 -84.1469 350° North 467 537 40,000  Level Atlanta Center
11:39AM 32.4939 -84.1792 348° North 467 537 40,000  Level Atlanta Center
11:40AM 32.6253 -84.2089 349° North 467 537 40,000  Level Atlanta Center
11:41AM 32.7567 -84.2389 349° North 467 537 40,000  Level Atlanta Center
11:42AM 32.9006 -84.2689 350° North 472 543 40,000  Level Atlanta Center
11:43AM 33.0322 -84.3014 348° North 472 543 40,000  Level Atlanta Center
11:44AM 33.1656 -84.3317 349° North 472 543 40,000  Level Atlanta Center
11:45AM 33.2969 -84.3594 350° North 472 543 40,000  Level Atlanta Center
11:46AM 33.4306 -84.3897 349° North 477 549 40,000  Level Atlanta Center
11:47AM 33.5600 -84.4228 348° North 477 549 40,000  Level Atlanta Center
11:48AM 33.6789 -84.4481 350° North 477 549 40,000  Level Atlanta Center
11:49AM 33.8081 -84.4814 348° North 477 549 40,000  Level Atlanta Center
11:50AM 33.9394 -84.5119 349° North 477 549 40,000  Level Atlanta Center
11:51AM 34.0833 -84.5506 347° North 477 549 40,000  Level Atlanta Center
11:52AM 34.2189 -84.5789 350° North 483 556 40,000  Level Atlanta Center
11:53AM 34.3461 -84.6100 349° North 476 548 40,000  Level Atlanta Center
11:54AM 34.4711 -84.6408 349° North 471 542 40,000  Level Atlanta Center
11:55AM 34.6003 -84.6697 350° North 466 536 40,000  Level Atlanta Center
11:56AM 34.7253 -84.7036 347° North 465 535 40,000  Level Atlanta Center
11:57AM 34.8544 -84.7375 348° North 465 535 40,000  Level Atlanta Center
11:58AM 34.9817 -84.7689 349° North 465 535 40,000  Level Atlanta Center
11:59AM 35.1131 -84.8031 348° North 470 541 40,000  Level Atlanta Center
12:00PM 35.2422 -84.8347 349° North 470 541 40,000  Level Atlanta Center
12:01PM 35.3589 -84.8639 348° North 470 541 40,000  Level Atlanta Center
12:02PM 35.4878 -84.8958 349° North 470 541 40,000  Level Atlanta Center
12:03PM 35.6150 -84.9278 348° North 470 541 40,000  Level Atlanta Center
12:04PM 35.7481 -84.9625 348° North 470 541 40,000  Level Atlanta Center
12:06PM 36.0144 -85.0278 349° North 479 551 40,000  Level Indianapolis Center
12:07PM 36.1461 -85.0619 348° North 480 552 40,000  Level Indianapolis Center
12:08PM 36.3033 -85.1019 348° North 479 551 40,000 -49 Level Indianapolis Center
12:09PM 36.4331 -85.1358 348° North 475 547 39,900 -537 Descending Indianapolis Center
12:10PM 36.5608 -85.1675 349° North 470 541 38,900 -976 Descending Indianapolis Center
12:11PM 36.6844 -85.2014 348° North 457 526 37,900 -984 Descending Indianapolis Center
12:12PM 36.8139 -85.2353 348° North 469 540 36,900 -1,024 Descending Indianapolis Center
12:13PM 36.9411 -85.2664 349° North 468 539 35,800 -1,122 Descending Indianapolis Center
12:14PM 37.0686 -85.3019 347° North 452 520 34,600 -1,180 Descending Indianapolis Center
12:15PM 37.1881 -85.3325 348° North 440 506 33,400 -1,122 Descending Indianapolis Center
12:16PM 37.3047 -85.3631 348° North 428 493 32,300 -683 Descending Indianapolis Center
12:17PM 37.4239 -85.3956 348° North 436 502 32,000 -148 Descending Indianapolis Center
12:18PM 37.5453 -85.4275 348° North 441 507 32,000  Level Indianapolis Center
12:19PM 37.6653 -85.4608 348° North 439 505 32,000  Level Indianapolis Center
12:20PM 37.8050 -85.4989 348° North 437 503 32,000  Level Indianapolis Center
12:21PM 37.9258 -85.5283 349° North 437 503 32,000  Level Indianapolis Center
12:22PM 38.0419 -85.5608 348° North 432 497 32,000  Level Indianapolis Center
12:23PM 38.1611 -85.5839 351° North 433 498 32,000 -836 Level Indianapolis Center
12:24PM 38.2858 -85.5981 355° North 445 512 30,300 -1,805 Descending Indianapolis Center
12:25PM 38.4072 -85.6133 354° North 438 504 28,300 -1,854 Descending Indianapolis Center
12:26PM 38.5247 -85.6272 355° North 427 491 26,500 -2,115 Descending Indianapolis Center
12:27PM 38.6394 -85.6431 354° North 416 479 24,000 -2,341 Descending Indianapolis Center
12:28PM 38.7469 -85.6636 352° North 395 455 21,700 -2,244 Descending Indianapolis Center
12:29PM 38.8533 -85.6817 352° North 385 443 19,400 -2,459 Descending Indianapolis Center
12:30PM 38.9792 -85.7047 352° North 381 438 16,700 -2,585 Descending Indianapolis Center
12:31PM 39.0886 -85.7247 352° North 389 448 14,100 -1,756 Descending Indianapolis Center
12:32PM 39.1883 -85.7444 351° North 377 434 13,100 -1,415 Descending Indianapolis Center
12:33PM 39.2836 -85.7611 352° North 356 410 11,200 -1,512 Descending Indianapolis Center
12:34PM 39.3556 -85.8178 329° Northwest 312 359 10,000 -590 Descending Indianapolis Center
12:35PM 39.4136 -85.8864 318° Northwest 292 336 10,000  Level Indianapolis Center
12:36PM 39.4636 -85.9461 317° Northwest 272 313 10,000 -1,024 Level Indianapolis Center
12:37PM 39.5078 -85.9992 317° Northwest 248 285 7,900 -1,463 Descending Indianapolis Center
12:38PM 39.5561 -86.0550 318° Northwest 238 274 7,000 -443 Descending Indianapolis Center
12:39PM 39.6067 -86.1144 318° Northwest 237 273 7,000 -148 Level Indianapolis Center
12:40PM 39.6789 -86.1144 360° North 255 293 6,700 -293 Descending Indianapolis Center
12:41PM 39.7478 -86.1111 North 254 292 6,400 -1,682 Descending Indianapolis Center
12:43PM 39.8000 -86.1500 330° Northwest 240 276 3,000 -1,500 Descending Indianapolis TRACON
12:44PM 39.7833 -86.2167 252° West 185 213 3,300 -632 Climbing Indianapolis TRACON
12:45PM 39.7667 -86.2500 237° Southwest 133 153 1,800 -1,500 Descending Indianapolis TRACON
12:46PM 39.7167 -86.2833 90° East  Level FlightAware Approximate
12:53PM 39.7173 -86.2947 90° East  Level Estimated
12:54PM 39.7173 -86.2947 90° East  Level Estimated